[[{"header":{"parameterUnit":"m.s-1","parameterCategory":1,"la1":30.2991,"la2":30.254,"lo1":-89.0895,"lo2":-89.0444,"dy":0.0017,"dx":0.0017,"nx":28,"ny":28,"refTime":"2025-09-17T21:00:00:Z","depth":0,"parameterNumber":2,"parameterNumberName":"U-component_of_WINDS"},"data":[0,0,0,0,0,0,0,0,0,0,0,0,0,0,0,0,0,0,0,0,0,0,0,0,0,0,0,0,0,0,0,0,0,0,0,0,0,0,0,0,0,0,0,0,0,0,0,0,0,0,0,0,0,0,0,0,0,0,-0.0233,-0.0232,0,-0.0134,-0.0133,-0.0132,-0.0083,-0.0083,-0.0083,-0.0083,0.002,0.0023,0.0025,0,0,0,0,0,0,0,0,0,0,0,0,0,-0.038,-0.0377,-0.0233,-0.0232,-0.0231,-0.0134,-0.0133,-0.0132,-0.0083,-0.0083,-0.0083,-0.0083,0.0019,0.0022,0.0026,0,0,0,0,0,0,0,0,0,0,0,0,0,-0.0302,-0.0376,-0.0234,-0.0195,-0.0191,-0.0135,-0.0133,-0.0131,-0.0083,-0.0083,-0.0083,-0.0083,0.0018,0.0022,0.0026,0.0052,0,0,0.0039,0.0041,0,0,0,0,0,0,0,0,-0.0306,-0.0297,-0.0202,-0.0198,-0.0193,-0.0121,-0.0147,-0.007,-0.0083,-0.0124,-0.0083,-0.0083,-0.0027,-0.0019,-0.0,0.0057,0.0061,0.0039,0.0042,0.0044,0.0045,0,0,0,0,0,0,0,-0.0312,-0.0301,-0.0194,-0.0201,-0.0195,-0.0183,-0.0172,-0.0132,-0.0076,-0.012,-0.0117,-0.0106,-0.0024,-0.0004,0.0003,0.0063,0.0039,0.0043,0.0045,0.0047,0.0145,0.0145,0,0,0,0,0,0,-0.0324,-0.0305,-0.0197,-0.0191,-0.0251,-0.018,-0.0168,-0.0144,-0.0077,-0.0067,-0.0106,-0.0104,-0.0011,-0.0002,0.0006,0.004,0.0043,0.0047,0.005,0.0145,0.0145,0.0145,0,0,0,0,0,0,-0.0327,-0.0314,-0.0201,-0.0247,-0.0232,-0.0177,-0.0151,-0.0142,-0.0122,-0.0066,-0.0055,-0.0096,-0.0011,0.0001,0.004,0.0045,0.0049,0.0053,0.0145,0.0145,0.0145,0.0109,0,0,0,0,0,0,-0.0331,-0.0316,-0.0306,-0.0247,-0.023,-0.017,-0.0151,-0.014,-0.0115,-0.0112,-0.0054,-0.0044,-0.001,0.0033,0.0044,0.005,0.0056,0.0145,0.0145,0.0145,0.011,0.0108,0.0106,0,0,0,0,0,-0.0337,-0.0319,-0.0305,-0.0293,-0.0216,-0.0169,-0.0159,-0.0121,-0.0115,-0.0104,-0.0068,-0.0046,0.0042,0.0037,0.0049,0.0057,0.0144,0.0145,0.0145,0.0111,0.0108,0.0106,0,0,0,0,0,0,-0.0377,-0.0311,-0.0295,-0.0258,-0.022,-0.0161,-0.0146,-0.0125,-0.0087,-0.0086,-0.004,-0.0027,0.0008,0.0037,0.003,0.0085,0.0095,0.0098,0.0065,0.0063,0.0061,0.0054,0.006,0,0,0,0,0,-0.0382,-0.035,-0.0294,-0.0267,-0.0249,-0.0201,-0.0179,-0.0154,-0.0112,-0.0096,-0.0057,-0.0017,0.002,0.0043,0.008,0.0114,0.0127,0.0125,0.0123,0.0121,0.0123,0.0142,0.0142,0.0146,0.0146,0.0146,0,0,-0.0391,-0.0351,-0.0334,-0.0274,-0.0241,-0.021,-0.0188,-0.0155,-0.0131,-0.009,-0.0051,-0.0021,0.0026,0.0062,0.0081,0.0087,0.0125,0.0122,0.012,0.0123,0.0143,0.0142,0.0142,0.0146,0.0146,0.0146,0,0,-0.0392,-0.0358,-0.0332,-0.0301,-0.0252,-0.0221,-0.0215,-0.016,-0.0139,-0.0099,-0.0069,-0.0039,0.0023,0.0055,0.008,0.0089,0.0111,0.01,0.009,0.0108,0.0108,0.0108,0.011,0.0111,0.0102,0.0102,0.0102,0,-0.0409,-0.036,-0.0321,-0.029,-0.0265,-0.0229,-0.0202,-0.0173,-0.0115,-0.0099,-0.0092,-0.0014,0.002,0.0064,0.0066,0.0085,0.0093,0.0094,0.0104,0.0105,0.0105,0.0109,0.011,0.01,0.01,0.01,0.01,0,-0.0384,-0.0351,-0.0336,-0.0282,-0.0255,-0.0226,-0.0183,-0.0161,-0.0138,-0.0108,-0.0068,-0.0026,0.002,0.0032,0.0055,0.0079,0.0082,0.0096,0.0107,0.0103,0.0106,0.0108,0.0097,0.0098,0.0099,0.0099,0,0,-0.0406,-0.0332,-0.0327,-0.0303,-0.0248,-0.0221,-0.0191,-0.0148,-0.013,-0.0091,-0.0065,-0.0014,-0.0002,0.0026,0.0053,0.0069,0.0073,0.0081,0.0083,0.0078,0.01,0.0089,0.009,0.0087,0.0088,0.0088,0.0096,0,-0.0399,-0.0344,-0.0309,-0.0268,-0.0238,-0.0203,-0.0178,-0.0141,-0.0112,-0.0082,-0.005,-0.0015,-0.0,0.0017,0.0034,0.0068,0.0078,0.0068,0.0112,0.0113,0.0099,0.0092,0.0081,0.0087,0.0098,0.0098,0.0099,0,-0.0383,-0.0346,-0.0303,-0.0253,-0.0238,-0.0216,-0.0174,-0.0145,-0.0103,-0.0084,-0.0054,-0.0027,0.0006,0.0013,0.0059,0.0051,0.0071,0.0091,0.0092,0.0098,0.0106,0.0098,0.009,0.0091,0.0101,0.0101,0.0101,0,-0.0403,-0.0344,-0.031,-0.029,-0.0231,-0.0216,-0.019,-0.0148,-0.0125,-0.0088,-0.0073,-0.0032,-0.001,0.002,0.0057,0.006,0.0098,0.011,0.0115,0.0114,0.0123,0.0122,0.0118,0.0135,0.0135,0.0135,0.0135,0,-0.0399,-0.0374,-0.0319,-0.0299,-0.027,-0.023,-0.0203,-0.0174,-0.0138,-0.0111,-0.0079,-0.0054,-0.0007,0.0023,0.0052,0.0084,0.0094,0.0111,0.0118,0.0108,0.0106,0.0122,0.0122,0.0135,0.0135,0.0135,0.0135,0,-0.0417,-0.0379,-0.0341,-0.0288,-0.0274,-0.0255,-0.021,-0.0189,-0.0159,-0.0126,-0.0116,-0.0069,-0.0032,0.0007,0.0058,0.0077,0.0108,0.0119,0.0094,0.0098,0.0101,0.01,0.0108,0.0111,0.0125,0.0125,0.0125,0,-0.0416,-0.0396,-0.0342,-0.0322,-0.0298,-0.0266,-0.0243,-0.0203,-0.018,-0.0132,-0.0117,-0.0078,-0.0045,0.0012,0.0051,0.0089,0.0101,0.0101,0.0107,0.0096,0.0101,0.0099,0.0101,0.0099,0.0099,0.0098,0.0098,0,-0.042,-0.0402,-0.037,-0.0331,-0.0304,-0.0272,-0.0238,-0.0224,-0.0178,-0.0153,-0.0116,-0.009,-0.004,-0.0002,0.0041,0.0068,0.009,0.0096,0.0099,0.0089,0.0073,0.0081,0.0088,0.0096,0.0096,0.0096,0.0096,0.0096,-0.0428,-0.0409,-0.0369,-0.0334,-0.0305,-0.0274,-0.0252,-0.0221,-0.0189,-0.0145,-0.0124,-0.0087,-0.0047,0.0012,0.0038,0.0068,0.0075,0.008,0.0081,0.0082,0.0079,0.0068,0.0076,0.0076,0.0076,0.0076,0.0076,0,-0.043,-0.0403,-0.0371,-0.0325,-0.0298,-0.0281,-0.0243,-0.0221,-0.0189,-0.0154,-0.0123,-0.0081,-0.0044,-0.0003,0.0036,0.0051,0.0062,0.006,0.0059,0.0065,0.007,0.0063,0.005,0.005,0.005,0.005,0.005,0.005,-0.0428,-0.0395,-0.0374,-0.0327,-0.0299,-0.0264,-0.0244,-0.0216,-0.0188,-0.0142,-0.0112,-0.0086,-0.0049,-0.0008,0.0026,0.0037,0.005,0.0044,0.0058,0.0063,0.0065,0.0067,0.006,0.0047,0.0047,0.0051,0.0051,0.0051]},{"header":{"parameterUnit":"m.s-1","parameterCategory":1,"la1":30.2991,"la2":30.254,"lo1":-89.0895,"lo2":-89.0444,"dy":0.0017,"dx":0.0017,"nx":28,"ny":28,"refTime":"2025-09-17T21:00:00:Z","depth":0,"parameterNumber":3,"parameterNumberName":"V-component_of_WINDS"},"data":[0,0,0,0,0,0,0,0,0,0,0,0,0,0,0,0,0,0,0,0,0,0,0,0,0,0,0,0,0,0,0,0,0,0,0,0,0,0,0,0,0,0,0,0,0,0,0,0,0,0,0,0,0,0,0,0,0,0,0.8532,0.8532,0,0.8568,0.8568,0.8569,0.8585,0.8585,0.8585,0.8585,0.862,0.8621,0.8622,0,0,0,0,0,0,0,0,0,0,0,0,0,0.8472,0.8473,0.8532,0.8532,0.8532,0.8568,0.8568,0.8569,0.8585,0.8585,0.8585,0.8585,0.862,0.8621,0.8622,0,0,0,0,0,0,0,0,0,0,0,0,0,0.8502,0.8474,0.8531,0.8545,0.8547,0.8568,0.8568,0.8569,0.8585,0.8585,0.8585,0.8585,0.8619,0.8621,0.8622,0.8632,0,0,0.8627,0.8627,0,0,0,0,0,0,0,0,0.8501,0.8504,0.8543,0.8544,0.8546,0.8572,0.856,0.859,0.8585,0.8571,0.8585,0.8585,0.8604,0.8607,0.8613,0.8633,0.8635,0.8627,0.8628,0.8628,0.8629,0,0,0,0,0,0,0,0.8498,0.8503,0.8546,0.8543,0.8545,0.8548,0.8552,0.8566,0.8587,0.8572,0.8573,0.8577,0.8605,0.8612,0.8614,0.8635,0.8627,0.8628,0.8629,0.8629,0.8661,0.8661,0,0,0,0,0,0,0.8495,0.8501,0.8545,0.8547,0.8523,0.8549,0.8554,0.8564,0.8587,0.859,0.8577,0.8578,0.861,0.8613,0.8616,0.8626,0.8628,0.8629,0.863,0.8661,0.8661,0.8661,0,0,0,0,0,0,0.8493,0.8498,0.8543,0.8524,0.853,0.855,0.8561,0.8564,0.8572,0.8591,0.8595,0.8581,0.861,0.8614,0.8627,0.8628,0.863,0.8631,0.8661,0.8661,0.8661,0.8648,0,0,0,0,0,0,0.8492,0.8498,0.8503,0.8524,0.8531,0.8555,0.8561,0.8565,0.8574,0.8575,0.8595,0.8599,0.861,0.8625,0.8628,0.863,0.8633,0.8661,0.8661,0.8661,0.8649,0.8648,0.8647,0,0,0,0,0,0.8489,0.8498,0.8503,0.8508,0.8538,0.8555,0.8559,0.8573,0.8574,0.8579,0.859,0.8598,0.8627,0.8626,0.863,0.8632,0.8661,0.8661,0.8661,0.8649,0.8648,0.8647,0,0,0,0,0,0,0.8477,0.8502,0.8507,0.8524,0.8537,0.8558,0.8564,0.8571,0.8585,0.8585,0.86,0.8604,0.8616,0.8625,0.8624,0.864,0.8644,0.8645,0.8634,0.8633,0.8632,0.863,0.8634,0,0,0,0,0,0.8476,0.8489,0.8509,0.8522,0.8528,0.8545,0.8553,0.8562,0.8576,0.8582,0.8595,0.8608,0.8619,0.8627,0.8639,0.865,0.8653,0.8653,0.8652,0.8651,0.8652,0.8655,0.8655,0.8661,0.8661,0.8661,0,0,0.8475,0.849,0.8497,0.8519,0.8531,0.8542,0.855,0.8562,0.857,0.8584,0.8597,0.8606,0.8621,0.8633,0.8638,0.8641,0.865,0.8651,0.8651,0.8651,0.8655,0.8654,0.8654,0.8661,0.8661,0.8661,0,0,0.8477,0.8491,0.8501,0.8512,0.8529,0.854,0.8542,0.8561,0.8568,0.8581,0.859,0.8599,0.862,0.8629,0.8637,0.8639,0.8645,0.8642,0.8638,0.8641,0.8641,0.864,0.8639,0.8639,0.8643,0.8642,0.8642,0,0.8473,0.8492,0.8506,0.8517,0.8525,0.8537,0.8546,0.8556,0.8576,0.8581,0.8583,0.8607,0.8618,0.8631,0.8631,0.8637,0.8638,0.864,0.864,0.8639,0.8639,0.8638,0.8638,0.8642,0.8642,0.8642,0.8642,0,0.8484,0.8496,0.8503,0.8521,0.853,0.854,0.8554,0.8561,0.8568,0.8577,0.8589,0.8602,0.8616,0.8619,0.8627,0.8632,0.8632,0.8637,0.8641,0.8638,0.8637,0.8637,0.8641,0.8641,0.8641,0.8642,0,0,0.8482,0.8506,0.8508,0.8515,0.8533,0.8542,0.8551,0.8564,0.8569,0.8581,0.8588,0.8603,0.8607,0.8615,0.8623,0.8626,0.8624,0.863,0.8631,0.8627,0.8627,0.8623,0.8622,0.8628,0.8628,0.8628,0.8625,0,0.8486,0.8504,0.8515,0.8528,0.8538,0.8548,0.8555,0.8566,0.8574,0.8582,0.8591,0.8601,0.8606,0.8611,0.8614,0.8624,0.8624,0.8624,0.8633,0.8633,0.8628,0.8622,0.8618,0.8615,0.8625,0.8625,0.8625,0,0.8495,0.8505,0.8519,0.8533,0.8537,0.8544,0.8555,0.8564,0.8575,0.858,0.8588,0.8596,0.8603,0.8606,0.8616,0.8616,0.8619,0.8624,0.8624,0.8625,0.8629,0.8622,0.8615,0.8614,0.8625,0.8625,0.8625,0,0.8489,0.8507,0.8517,0.8523,0.854,0.8544,0.8551,0.8562,0.8568,0.8577,0.8581,0.8591,0.8596,0.8603,0.8612,0.8614,0.862,0.8624,0.8623,0.8622,0.8624,0.8623,0.8616,0.8628,0.8628,0.8628,0.8628,0,0.8492,0.85,0.8515,0.8521,0.8528,0.8539,0.8546,0.8554,0.8563,0.8569,0.8578,0.8583,0.8596,0.8602,0.8609,0.8614,0.8617,0.862,0.8622,0.8619,0.8618,0.8621,0.8621,0.8628,0.8628,0.8628,0.8628,0,0.8488,0.8499,0.8509,0.8524,0.8527,0.8532,0.8543,0.8548,0.8556,0.8563,0.8565,0.8577,0.8584,0.8594,0.8605,0.8609,0.8613,0.8616,0.8609,0.861,0.8607,0.8607,0.8601,0.86,0.8613,0.8613,0.8613,0,0.8489,0.8495,0.8509,0.8513,0.852,0.8528,0.8533,0.8543,0.8549,0.856,0.8563,0.857,0.8577,0.8588,0.8597,0.8604,0.8607,0.8604,0.8608,0.8604,0.8605,0.8604,0.8603,0.8603,0.8603,0.8603,0.8603,0,0.8489,0.8493,0.8501,0.851,0.8516,0.8524,0.8532,0.8535,0.8546,0.8551,0.8559,0.8564,0.8573,0.858,0.8588,0.8594,0.8599,0.8601,0.8601,0.8598,0.8593,0.8594,0.8605,0.8601,0.8602,0.8602,0.8602,0.8602,0.8486,0.849,0.85,0.8508,0.8514,0.8521,0.8525,0.8532,0.8539,0.8548,0.8553,0.8559,0.8567,0.8578,0.8583,0.8587,0.8589,0.859,0.8589,0.8589,0.8587,0.8592,0.8589,0.8589,0.8589,0.8589,0.8589,0,0.8485,0.8491,0.8498,0.8508,0.8513,0.8518,0.8526,0.8529,0.8535,0.8542,0.8548,0.8555,0.856,0.8569,0.8575,0.8576,0.8578,0.8577,0.8577,0.8577,0.8586,0.8584,0.8575,0.8575,0.8575,0.8575,0.8575,0.8575,0.8485,0.8492,0.8496,0.8505,0.8511,0.8517,0.8521,0.8526,0.8531,0.8538,0.8543,0.8548,0.8554,0.856,0.8565,0.8567,0.8568,0.8566,0.8568,0.8576,0.8577,0.8578,0.8577,0.8566,0.8566,0.8559,0.8559,0.8559]}]]